FENGYUN 1C DEB

Satellite information

Favourite Embed

Satellite Type and Status

DEBRISIN ORBIT

Key statistics

Satellite FENGYUN 1C DEB at a glance.

Uptime

9669

Days in orbit

Revolutions

≈ 14.6

Per day

Orbit

SSO

Sun Synchronous Orbit

Inclination

98.9

Latest

Satellite identification and parameters

Extended collection of information and parameters for FENGYUN 1C DEB.

Object identification

Identified? True

Debris? True

Object name: FENGYUN 1C DEB

International designator: 1999-025BBB

Object number (NORAD): 30961

Object ID (CCSDS): 30961

Country: PEOPLES REPUBLIC OF CHINA (PRC)

Current information (Y/N): Y

RCS size: SMALL

Orbital parameters

Period: 98.803 minutes

Inclination: 98.9366 deg

SMA: 7079.593 km

Apoapsis: 792.568 km

Periapsis: 610.348 km

RAAN: 338.8743 deg

Eccentricy: 0.0128694

Argument of periapsis: 68.5318 deg

Mean anomaly: 292.9546 deg

Mean motion: 14.57438783 rev/day

Mean motion (dot): 0.00014034 rev/day2

B* drag term: 0.0027661 1/REarth

Two-line elements (TLE)

Creation date: May 21, 2025, 4:08 a.m.

Reference frame: TEME

Reference center: EARTH

Epoch: Oct. 27, 2024, 8:26 p.m. UTC

TLE line 0: 0 FENGYUN 1C DEB

TLE line 1: 1 30961U 99025BBB 24301.85201578 .00014034 00000-0 27661-2 0 9996

TLE line 2: 2 30961 98.9366 338.8743 0128694 68.5318 292.9546 14.57438783589468

Live tracking on map

Real-time ground track for satellite FENGYUN 1C DEB.

In-orbit conjunctions

A list of the most updated potential collisions computed for object FENGYUN 1C DEB.

Target Orbit TCA Probability of collision Miss distance Type
COSMOS 2251 DEB LEO 2024-08-24 12:24:24 0.0001823705 28.0 (m) DEBRIS

Associated space launch

Chinese polar orbiting meteorological satellite

FENGYUN 1C DEB was lifted into orbit during the mission ‘Long March 4B | Feng Yun 1C’, on board a Long March 4B space rocket.

The launch took place on May 10, 1999, 1:33 a.m. from Launch Complex 7.

For more information about the launch, click the button.

Launch to space Long March 4B | Feng Yun 1C
Long March 4B | Feng Yun 1C

Agency: N/A

Status: Launch Successful

Launch date: May 10, 1999, 1:33 a.m. UTC

Rocket: Long March 4B

Launch pad: Launch Complex 7

Location: Taiyuan Satellite Launch Center, People's Republic of China

...

Latest news about this satellite

There are no fresh news available about this satellite. Check back as we update our databases every day.


Newsletter sign-up

Weekly statistics, charts and insights to help you stay on top of the space industry.